Погода в Новочеремшанске

Россия / Ульяновская область     54°21′26″N   50°09′42″E
темп.,
°C
ветер,
м/с
пор.,
м/с
влажн.,
%
обл.,
%
осадки,
мм/ч
давл.,
гПа
погр.,
м
24 сентября, пт
пт2401:00+9вюв61476100 1.4 1017534
04:00+10юв81883100 2.6 1016760
07:00+10юв81872100 0.2 1015741
10:00+11юв81752100 0.2 1016664
13:00+9ююв81670100 0.4 1017753
16:00+10юв81673100 0.9 1016723
19:00+9юв61473100 0.6 1016716
22:00+8всв2487100 2.2 1015200
25 сентября, сб
сб2501:00+8в51084100 1.3 1014296
04:00+9в51372100 2.1 1012491
07:00+7вюв51185100 1.1 1011449
10:00+8вюв3787100 1.4 1011365
13:00+11вюв346681 0.0 1011495
16:00+13св225693 0.0 1010782
19:00+10с3471100 0.0 101173
22:00+9с2377100 0.0 101191
26 сентября, вс
вс2601:00+9с2380100 0.0 101099
04:00+8ссз2381100 0.0 101098
07:00+8ссз2482100 0.0 1010137
10:00+10ссз2370100 0.0 1009321
13:00+13ссз2257100 0.0 1008738
16:00+13ссз2257100 0.0 1008998
19:00+10всв2273100 0.0 100834
22:00+9в2282100 0.0 100837
27 сентября, пн
пн2701:00+8св2287100 0.0 100824
04:00+8всв3491100 0.0 1009105
07:00+9св3688100 0.0 1009225
10:00+10в5767100 0.0 1011555
13:00+10в5866100 0.0 1014852
16:00+9всв5879100 0.1 1016909
19:00+7св61079100 0.1 1019539
22:00+5св5107792 0.1 1020399
28 сентября, вт
вт2801:00+4св497515 0.0 1022277
04:00+2св49785 0.0 1024226
07:00+1св49794 0.0 1026234
10:00+6св475447 0.0 1027591
13:00+9св454396 0.0 10271101
16:00+9ссв444396 0.0 10271242
19:00+5с35625 0.0 102874
22:00+4с227085 0.0 102831